Hourly Data Report for June 18, 2019

TORONTO CITY
ONTARIO
Current Station Operator: ECCC - MSC

43°40'00.000" N
79°24'00.000" W
112.50 m
6158355
71508
XTO

Download Data

Hourly Data (June 2019)
Hourly Data Report for June 18, 2019
TIME
LST
Temp Definition
°C
Dew Point Definition
°C
Rel Hum Definition
%
Precip. Amount Definition
mm

Wind Dir Definition
10's deg

Wind Spd Definition
km/h
Visibility Definition
km
Stn Press Definition
kPa
Hmdx Definition


Wind Chill Definition


Weather Definition


00:00 17.3 8.4 56 0.0       100.15     LegendNANA
01:00 17.1 9.2 59 0.0       100.15     LegendNANA
02:00 17.4 9.3 59 0.0       100.12     LegendNANA
03:00 17.9 9.5 58 0.0       100.05     LegendNANA
04:00 17.5 9.9 61 0.0       100.07     LegendNANA
05:00 17.8 10.1 61 0.0       100.08     LegendNANA
06:00 18.3 10.3 59 0.0       100.05     LegendNANA
07:00 18.7 10.1 57 0.0       100.08     LegendNANA
08:00 18.3 11.2 63 0.0       100.10     LegendNANA
09:00 20.0 9.4 50 0.0       100.10     LegendNANA
10:00 21.0 9.3 47 0.0       100.09     LegendNANA
11:00 21.8 7.6 40 0.0       100.08     LegendNANA
12:00 23.2 7.6 37 0.0       100.05     LegendNANA
13:00 22.2 7.8 40 0.0       100.01     LegendNANA
14:00 23.3 7.0 35 0.0       99.95     LegendNANA
15:00 23.1 6.1 33 0.0       99.89     LegendNANA
16:00 23.5 7.1 35 0.0       99.89     LegendNANA
17:00 23.4 7.3 36 0.0       99.81     LegendNANA
18:00 22.7 7.0 36 0.0       99.77     LegendNANA
19:00 21.4 7.4 40 0.0       99.77     LegendNANA
20:00 19.3 8.4 49 0.0       99.77     LegendNANA
21:00 18.6 8.9 53 0.0       99.81     LegendNANA
22:00 18.4 9.0 54 0.0       99.81     LegendNANA
23:00 18.8 7.8 49 0.0       99.78     LegendNANA

Notes on Data Quality.

Legend

  • E = Estimated
  • M = Missing
  • NA = Not Available*
  • [empty] = Indicates an unobserved value
Date modified: